This is the latest recevied weather packets stored in our database for station/object KF6YUA. If no packets are shown the sender has not sent any weather packets the latest 10 day(s).
| Time | Temp. | Humidity | Pressure | Rain* | Wind** | Luminosity | Snow |
|---|---|---|---|---|---|---|---|
| 1777605603 | 12.22° C | 90% | 1015 hPa | 0 mm | - | 0 W/m² | - |
| 1777605297 | 12.78° C | 90% | 1014.7 hPa | 0 mm | - | 0 W/m² | - |
| 1777604994 | 12.78° C | 90% | 1014.6 hPa | 0 mm | - | 0 W/m² | - |
| 1777604689 | 13.33° C | 89% | 1014.5 hPa | 0 mm | - | 0 W/m² | - |
| 1777604387 | 13.33° C | 88% | 1014.6 hPa | 0 mm | - | 0 W/m² | - |
| 1777604086 | 13.33° C | 87% | 1014.5 hPa | 0 mm | - | 5 W/m² | - |
| 1777603784 | 13.33° C | 87% | 1014.8 hPa | 0 mm | - | 4 W/m² | - |
| 1777603480 | 13.89° C | 87% | 1014.8 hPa | 0 mm | - | 5 W/m² | - |
| 1777603176 | 13.89° C | 86% | 1014.7 hPa | 0 mm | - | 6 W/m² | - |
| 1777602872 | 14.44° C | 86% | 1014.6 hPa | 0 mm | - | 9 W/m² | - |
| 1777602566 | 14.44° C | 85% | 1014.7 hPa | 0 mm | - | 11 W/m² | - |
| 1777602263 | 14.44° C | 85% | 1014.5 hPa | 0 mm | - | 13 W/m² | - |
| 1777601958 | 15° C | 84% | 1014.6 hPa | 0 mm | - | 15 W/m² | - |
| 1777601653 | 15° C | 83% | 1014.7 hPa | 0 mm | - | 17 W/m² | - |
| 1777601349 | 15° C | 83% | 1014.6 hPa | 0 mm | - | 18 W/m² | - |
| 1777601045 | 15° C | 82% | 1014.6 hPa | 0 mm | - | 21 W/m² | - |
| 1777600743 | 15° C | 82% | 1014.7 hPa | 0 mm | - | 22 W/m² | - |
| 1777600439 | 15° C | 82% | 1014.6 hPa | 0 mm | - | 23 W/m² | - |
| 1777600134 | 15.56° C | 82% | 1014.7 hPa | 0 mm | - | 27 W/m² | - |
| 1777599830 | 15.56° C | 81% | 1014.8 hPa | 0 mm | - | 26 W/m² | - |
| 1777599526 | 15.56° C | 80% | 1014.8 hPa | 0 mm | - | 29 W/m² | - |
| 1777599223 | 16.11° C | 79% | 1014.7 hPa | 0 mm | - | 35 W/m² | - |
| 1777598918 | 16.67° C | 78% | 1014.8 hPa | 0 mm | - | 33 W/m² | - |
| 1777598617 | 17.22° C | 76% | 1014.6 hPa | 0 mm | - | 79 W/m² | - |
| 1777598312 | 17.22° C | 75% | 1014.7 hPa | 0 mm | - | 91 W/m² | - |
* Rain latest hour (hover to see other rain measurements)
** Current wind speed in m/s (hover to see current wind gust speed)